Location: Arborea
(39.7744°N, 8.5819°E)
Time: 05:41:03
(UTC+00:00)

Cosmos 2322 - Pass Details

Date: 04 June 2022
Orbit: 840 x 855 km, 71.0° (Epoch: 03 July)

Event Time Altitude Azimuth Distance (km) Brightness Sun altitude
Exits shadow 22:02:33 - 236° (SW) 2,958 6.4 -24.9°
Reaches altitude 10° 22:04:00 10° 243° (WSW) 2,480 6.1 -25.0°
Maximum altitude 22:08:56 30° 303° (WNW) 1,496 5.4 -25.3°
Drops below altitude 10° 22:13:55 10° 3° (N) 2,493 7.0 -25.6°
Sets 22:16:43 0° 15° (NNE) 3,433 7.8 -25.8°
